Weather History for KLUF - April, 2013

Change the Weather History Date:

Monday, April 1, 2013

  Actual Average Record
Temperature  
Mean Temperature 70 °F -  
Max Temperature 82 °F 80 °F 97 °F (2011)
Min Temperature 59 °F 47 °F 27 °F (1938)
Cooling Degree Days 6    
Growing Degree Days 20 (Base 50)    
Moisture  
Dew Point 34 °F    
Average Humidity 26    
Maximum Humidity 50    
Minimum Humidity 13    
Precipitation  
Precipitation 0.00 in - - ()
Sea Level Pressure  
Sea Level Pressure 29.89 in    
Wind  
Wind Speed 7 mph (SW)    
Max Wind Speed 15 mph    
Max Gust Speed 20 mph    
Visibility 10 miles    
Events      
Averages and records for this station are not official NWS values.
T = Trace of Precipitation, MM = Missing Value Source: NWS Daily Summary

Daily Weather History Graph

Daily Weather History Graph

Search for Another Location

Airport or City:

Trip Planner

Search our weather history database for the weather conditions in past years. The results will help you decide how hot, cold, wet, or windy it might be!

Date:

Astronomy

Apr. 01, 2013 Rise Set
Actual Time 6:16 AM MST 6:50 PM MST
Civil Twilight 5:51 AM MST 7:15 PM MST
Nautical Twilight 5:22 AM MST 7:44 PM MST
Astronomical Twilight 4:52 AM MST 8:14 PM MST
Moon No Moon Rise 10:19 AM MST (4/1)
Length of Visible Light 13h 23m
Length of Day
12h 33m
Waning Gibbous, 66% of the Moon is Illuminated
Apr 1
Waning Gibbous
Apr 2
Last Quarter
Apr 10
New
Apr 18
First Quarter
Apr 25
Full

Hourly Weather History & Observations

Time (MST) Temp. Dew Point Humidity Pressure Visibility Wind Dir Wind Speed Gust Speed Precip Events Conditions
12:58 AM 69.4 °F 39.6 °F 34% 29.88 in 10.0 mi WNW 1.2 mph - N/A   Clear
1:58 AM 67.1 °F 39.0 °F 36% 29.88 in 10.0 mi Calm Calm - N/A   Clear
2:58 AM 63.1 °F 40.5 °F 43% 29.88 in 10.0 mi SSW 5.8 mph - N/A   Clear
3:58 AM 61.2 °F 41.0 °F 47% 29.89 in 10.0 mi SSW 4.6 mph - N/A   Clear
4:58 AM 59.5 °F 40.6 °F 50% 29.91 in 10.0 mi SSW 4.6 mph - N/A   Clear
5:58 AM 61.0 °F 39.6 °F 45% 29.91 in 10.0 mi SSW 5.8 mph - N/A   Clear
6:58 AM 62.4 °F 38.7 °F 41% 29.94 in 10.0 mi SW 8.1 mph - N/A   Partly Cloudy
7:58 AM 66.6 °F 38.5 °F 36% 29.95 in 10.0 mi SSW 10.4 mph - N/A   Clear
8:58 AM 69.8 °F 37.2 °F 30% 29.96 in 10.0 mi SW 10.4 mph - N/A   Partly Cloudy
9:58 AM 72.9 °F 36.5 °F 27% 29.96 in 10.0 mi SSW 12.7 mph - N/A   Clear
10:58 AM 75.6 °F 34.3 °F 22% 29.96 in 10.0 mi SW 13.8 mph - N/A   Clear
11:58 AM 77.7 °F 32.0 °F 19% 29.95 in 10.0 mi South 12.7 mph 19.6 mph N/A   Clear
12:58 PM 78.8 °F 32.4 °F 18% 29.92 in 10.0 mi SW 9.2 mph 17.3 mph N/A   Clear
1:09 PM 78.8 °F 32.0 °F 18% 29.94 in 10.0 mi SW 12.7 mph 19.6 mph N/A   Clear
1:58 PM 80.2 °F 34.5 °F 19% 29.90 in 10.0 mi SW 11.5 mph - N/A   Clear
2:58 PM 82.0 °F 30.2 °F 15% 29.88 in 10.0 mi SW 12.7 mph 17.3 mph N/A   Clear
3:02 PM 82.4 °F 30.2 °F 15% 29.89 in 10.0 mi WSW 13.8 mph 18.4 mph N/A   Clear
3:58 PM 81.3 °F 31.6 °F 17% 29.86 in 10.0 mi SW 15.0 mph - N/A   Clear
4:21 PM 82.4 °F 32.0 °F 16% 29.87 in 10.0 mi WSW 11.5 mph - N/A   Clear
4:58 PM 82.4 °F 32.0 °F 16% 29.84 in 10.0 mi SW 15.0 mph - 0.00 in   Clear
5:58 PM 81.0 °F 26.1 °F 13% 29.84 in 10.0 mi SW 15.0 mph - 0.00 in   Clear
6:58 PM 77.5 °F 27.1 °F 16% 29.85 in 10.0 mi SSW 6.9 mph - N/A   Clear
7:58 PM 74.1 °F 29.8 °F 20% 29.85 in 10.0 mi SSW 8.1 mph - N/A   Clear
8:58 PM 69.8 °F 35.6 °F 28% 29.86 in 10.0 mi WNW 10.4 mph - 0.00 in   Clear
9:58 PM 68.7 °F 30.2 °F 24% 29.87 in 10.0 mi WNW 8.1 mph - N/A   Clear
10:58 PM 65.8 °F 27.5 °F 24% 29.86 in 10.0 mi West 8.1 mph - N/A   Clear
11:58 PM 63.5 °F 26.8 °F 25% 29.86 in 10.0 mi North 1.2 mph - N/A   Clear